ENGINEERING TRACK TESTING
Weather & Rail Temperature Monitoring

Weather station NILES

Niles Engineering HQ. (Niles, MI)

Measurement History

Home Current History Weekly graphs

,

to download data from the start of , to the end of ,

Conditions for past 24 hours (since 09/01/2026 01:30 AM)

Time Main Track N rail Main Track S rail Controlled Siding N rail Controlled Siding S rail Outside Air
Temperature
Solar
Radiation
Max. Wind Humidity Air Pressure Rain
SpeedDir
09/02/2026 01:15 AM 78 °F 57 °F 77 °F 77 °F 79.8 °F 0 watt/m2 2 mph SE 85 % 29.907 in Hg 0 in
09/02/2026 01:00 AM 78 °F 12 °F 78 °F 78 °F 80.3 °F 0 watt/m2 2 mph SW 84 % 29.905 in Hg 0 in
09/02/2026 12:45 AM 79 °F 6 °F 78 °F 78 °F 80.8 °F 0 watt/m2 4 mph SSW 84 % 29.907 in Hg 0 in
09/02/2026 12:30 AM 79 °F 9 °F 79 °F 79 °F 81.2 °F 0 watt/m2 5 mph SE 84 % 29.903 in Hg 0 in
09/02/2026 12:15 AM 80 °F 20 °F 80 °F 80 °F 81.6 °F 0 watt/m2 6 mph SE 84 % 29.901 in Hg 0 in
09/02/2026 12:00 AM 81 °F 35 °F 80 °F 80 °F 81.8 °F 0 watt/m2 8 mph SE 84 % 29.9 in Hg 0 in
09/01/2026 11:45 PM 81 °F 14 °F 81 °F 81 °F 82.1 °F 0 watt/m2 11 mph SE 84 % 29.904 in Hg 0 in
09/01/2026 11:30 PM 81 °F 12 °F 81 °F 81 °F 82.3 °F 0 watt/m2 8 mph SW 84 % 29.903 in Hg 0 in
09/01/2026 11:15 PM 82 °F 15 °F 82 °F 82 °F 82.5 °F 0 watt/m2 8 mph SE 84 % 29.902 in Hg 0 in
09/01/2026 11:00 PM 82 °F 17 °F 82 °F 82 °F 82.5 °F 0 watt/m2 9 mph SSE 85 % 29.9 in Hg 0 in
09/01/2026 10:45 PM 83 °F 20 °F 83 °F 83 °F 82.4 °F 0 watt/m2 8 mph SE 85 % 29.899 in Hg 0 in
09/01/2026 10:30 PM 84 °F 17 °F 84 °F 83 °F 82.4 °F 0 watt/m2 6 mph SE 85 % 29.895 in Hg 0 in
09/01/2026 10:15 PM 85 °F 20 °F 84 °F 84 °F 82.3 °F 0 watt/m2 7 mph ESE 86 % 29.889 in Hg 0 in
09/01/2026 10:00 PM 85 °F 28 °F 85 °F 85 °F 82.2 °F 0 watt/m2 5 mph SE 86 % 29.889 in Hg 0 in
09/01/2026 09:45 PM 86 °F 19 °F 86 °F 86 °F 82.6 °F 0 watt/m2 3 mph N 85 % 29.886 in Hg 0 in
09/01/2026 09:30 PM 88 °F 29 °F 87 °F 87 °F 83.1 °F 0 watt/m2 4 mph ESE 84 % 29.885 in Hg 0 in
09/01/2026 09:15 PM 89 °F 86 °F 88 °F 89 °F 83.6 °F 0 watt/m2 1 mph NE 83 % 29.881 in Hg 0 in
09/01/2026 09:00 PM 90 °F 24 °F 90 °F 90 °F 84.2 °F 0 watt/m2 2 mph NE 83 % 29.878 in Hg 0 in
09/01/2026 08:45 PM 92 °F 90 °F 91 °F 92 °F 84.8 °F 0 watt/m2 4 mph ESE 82 % 29.874 in Hg 0 in
09/01/2026 08:30 PM 93 °F 51 °F 93 °F 93 °F 85.6 °F 0 watt/m2 1 mph E 81 % 29.876 in Hg 0 in
09/01/2026 08:15 PM 95 °F 49 °F 95 °F 95 °F 86.5 °F 7 watt/m2 2 mph SE 79 % 29.877 in Hg 0 in
09/01/2026 08:00 PM 97 °F 97 °F 97 °F 97 °F 87.7 °F 19 watt/m2 1 mph SE 78 % 29.878 in Hg 0 in
09/01/2026 07:45 PM 99 °F 54 °F 99 °F 99 °F 88.5 °F 33 watt/m2 2 mph E 76 % 29.878 in Hg 0 in
09/01/2026 07:30 PM 101 °F 57 °F 100 °F 101 °F 89.2 °F 49 watt/m2 2 mph SE 75 % 29.88 in Hg 0 in
09/01/2026 07:15 PM 103 °F 43 °F 102 °F 103 °F 89.7 °F 72 watt/m2 2 mph S 74 % 29.883 in Hg 0 in
09/01/2026 07:00 PM 105 °F 44 °F 104 °F 104 °F 90.2 °F 88 watt/m2 2 mph ESE 74 % 29.881 in Hg 0 in
09/01/2026 06:45 PM 107 °F 50 °F 106 °F 106 °F 90.8 °F 91 watt/m2 2 mph SSW 72 % 29.883 in Hg 0 in
09/01/2026 06:30 PM 109 °F 105 °F 107 °F 108 °F 90.9 °F 160 watt/m2 9 mph SE 70 % 29.882 in Hg 0 in
09/01/2026 06:15 PM 110 °F 56 °F 109 °F 109 °F 91 °F 205 watt/m2 8 mph SSE 71 % 29.88 in Hg 0 in
09/01/2026 06:00 PM 112 °F 53 °F 110 °F 110 °F 90.9 °F 208 watt/m2 8 mph SSE 70 % 29.881 in Hg 0 in
09/01/2026 05:45 PM 114 °F 53 °F 111 °F 111 °F 91.3 °F 267 watt/m2 12 mph ESE 68 % 29.876 in Hg 0 in
09/01/2026 05:30 PM 115 °F 53 °F 112 °F 113 °F 92 °F 339 watt/m2 11 mph SE 69 % 29.872 in Hg 0 in
09/01/2026 05:15 PM 115 °F 52 °F 112 °F 113 °F 91.8 °F 391 watt/m2 12 mph SE 68 % 29.875 in Hg 0 in
09/01/2026 05:00 PM 116 °F 79 °F 113 °F 114 °F 91.9 °F 472 watt/m2 9 mph SSW 68 % 29.875 in Hg 0 in
09/01/2026 04:45 PM 116 °F 101 °F 113 °F 114 °F 91.9 °F 512 watt/m2 11 mph SE 69 % 29.877 in Hg 0 in
09/01/2026 04:30 PM 116 °F 113 °F 112 °F 114 °F 92.1 °F 491 watt/m2 9 mph SE 69 % 29.878 in Hg 0 in
09/01/2026 04:15 PM 116 °F 113 °F 112 °F 115 °F 91.9 °F 517 watt/m2 11 mph SE 69 % 29.877 in Hg 0 in
09/01/2026 04:00 PM 116 °F 113 °F 113 °F 116 °F 92.6 °F 625 watt/m2 8 mph SSE 68 % 29.878 in Hg 0 in
09/01/2026 03:45 PM 115 °F 82 °F 112 °F 115 °F 92.1 °F 692 watt/m2 6 mph SW 68 % 29.888 in Hg 0 in
09/01/2026 03:30 PM 113 °F 112 °F 110 °F 113 °F 91.5 °F 686 watt/m2 5 mph ESE 72 % 29.893 in Hg 0 in
09/01/2026 03:15 PM 112 °F 110 °F 110 °F 112 °F 90.5 °F 353 watt/m2 4 mph SE 73 % 29.901 in Hg 0 in
09/01/2026 03:00 PM 113 °F 110 °F 111 °F 112 °F 90.5 °F 310 watt/m2 4 mph WSW 72 % 29.907 in Hg 0 in
09/01/2026 02:45 PM 114 °F 49 °F 111 °F 112 °F 90.7 °F 437 watt/m2 8 mph WSW 71 % 29.909 in Hg 0 in
09/01/2026 02:30 PM 113 °F 48 °F 111 °F 111 °F 90.4 °F 814 watt/m2 7 mph WSW 72 % 29.914 in Hg 0 in
09/01/2026 02:15 PM 111 °F 44 °F 109 °F 110 °F 89.4 °F 907 watt/m2 8 mph SW 74 % 29.913 in Hg 0 in
09/01/2026 02:00 PM 109 °F 47 °F 107 °F 109 °F 88.3 °F 463 watt/m2 8 mph SW 74 % 29.919 in Hg 0 in
09/01/2026 01:45 PM 108 °F 100 °F 106 °F 108 °F 87.7 °F 481 watt/m2 6 mph W 77 % 29.914 in Hg 0 in
09/01/2026 01:30 PM 107 °F 56 °F 105 °F 106 °F 86.8 °F 420 watt/m2 5 mph SW 77 % 29.916 in Hg 0 in
09/01/2026 01:15 PM 106 °F 56 °F 104 °F 106 °F 86.2 °F 299 watt/m2 6 mph WSW 76 % 29.917 in Hg 0 in
09/01/2026 01:00 PM 107 °F 54 °F 104 °F 106 °F 86.5 °F 284 watt/m2 6 mph W 76 % 29.914 in Hg 0 in
09/01/2026 12:45 PM 107 °F 54 °F 104 °F 107 °F 86.2 °F 365 watt/m2 7 mph WSW 76 % 29.914 in Hg 0 in
09/01/2026 12:30 PM 107 °F 54 °F 104 °F 107 °F 86.5 °F 308 watt/m2 8 mph SE 76 % 29.912 in Hg 0 in
09/01/2026 12:15 PM 108 °F 54 °F 105 °F 108 °F 86.6 °F 268 watt/m2 8 mph WSW 74 % 29.917 in Hg 0 in
09/01/2026 12:00 PM 107 °F 54 °F 104 °F 107 °F 86 °F 775 watt/m2 8 mph W 76 % 29.92 in Hg 0 in
09/01/2026 11:45 AM 104 °F 102 °F 101 °F 105 °F 85.4 °F 729 watt/m2 8 mph SW 77 % 29.921 in Hg 0 in
09/01/2026 11:30 AM 101 °F 51 °F 99 °F 103 °F 84.9 °F 718 watt/m2 7 mph SW 76 % 29.923 in Hg 0 in
09/01/2026 11:15 AM 98 °F 72 °F 96 °F 99 °F 84.3 °F 578 watt/m2 5 mph SW 79 % 29.927 in Hg 0 in
09/01/2026 11:00 AM 95 °F 93 °F 93 °F 97 °F 83.4 °F 657 watt/m2 10 mph SW 79 % 29.926 in Hg 0 in
09/01/2026 10:45 AM 91 °F 88 °F 89 °F 93 °F 82.3 °F 623 watt/m2 12 mph SE 80 % 29.933 in Hg 0 in
09/01/2026 10:30 AM 86 °F 85 °F 85 °F 88 °F 81.1 °F 556 watt/m2 8 mph ESE 83 % 29.937 in Hg 0 in
09/01/2026 10:15 AM 82 °F 81 °F 81 °F 83 °F 79.7 °F 422 watt/m2 8 mph SE 85 % 29.936 in Hg 0 in
09/01/2026 10:00 AM 79 °F 79 °F 79 °F 80 °F 78.3 °F 235 watt/m2 4 mph SW 87 % 29.934 in Hg 0 in
09/01/2026 09:45 AM 78 °F 45 °F 77 °F 78 °F 77.3 °F 195 watt/m2 5 mph SE 88 % 29.934 in Hg 0 in
09/01/2026 09:30 AM 76 °F 46 °F 75 °F 76 °F 76.4 °F 254 watt/m2 4 mph SE 90 % 29.939 in Hg 0 in
09/01/2026 09:15 AM 74 °F 72 °F 74 °F 74 °F 75.6 °F 132 watt/m2 7 mph SE 90 % 29.945 in Hg 0 in
09/01/2026 09:00 AM 73 °F 70 °F 73 °F 73 °F 74.9 °F 112 watt/m2 7 mph SE 91 % 29.953 in Hg 0 in
09/01/2026 08:45 AM 72 °F 69 °F 72 °F 72 °F 74.2 °F 201 watt/m2 4 mph SE 93 % 29.945 in Hg 0 in
09/01/2026 08:30 AM 71 °F 68 °F 71 °F 71 °F 73.4 °F 52 watt/m2 7 mph SSW 93 % 29.943 in Hg 0 in
09/01/2026 08:15 AM 70 °F 67 °F 70 °F 70 °F 73 °F 73 watt/m2 6 mph S 93 % 29.948 in Hg 0 in
09/01/2026 08:00 AM 70 °F 67 °F 69 °F 69 °F 72.2 °F 68 watt/m2 5 mph SE 94 % 29.938 in Hg 0 in
09/01/2026 07:45 AM 69 °F 66 °F 69 °F 69 °F 71.6 °F 34 watt/m2 4 mph SE 93 % 29.937 in Hg 0 in
09/01/2026 07:30 AM 68 °F 66 °F 68 °F 68 °F 71.2 °F 16 watt/m2 2 mph SSE 93 % 29.934 in Hg 0 in
09/01/2026 07:15 AM 68 °F 65 °F 68 °F 68 °F 71 °F 2 watt/m2 4 mph ESE 93 % 29.928 in Hg 0 in
09/01/2026 07:00 AM 68 °F 65 °F 68 °F 68 °F 70.9 °F 0 watt/m2 2 mph SW 93 % 29.924 in Hg 0 in
09/01/2026 06:45 AM 68 °F 66 °F 68 °F 68 °F 70.8 °F 0 watt/m2 1 mph S 93 % 29.923 in Hg 0 in
09/01/2026 06:30 AM 68 °F 65 °F 68 °F 68 °F 70.8 °F 0 watt/m2 1 mph SSE 92 % 29.92 in Hg 0 in
09/01/2026 06:15 AM 68 °F 65 °F 68 °F 68 °F 70.7 °F 0 watt/m2 1 mph SSE 92 % 29.923 in Hg 0 in
09/01/2026 06:00 AM 68 °F 65 °F 68 °F 68 °F 70.8 °F 0 watt/m2 2 mph SSE 92 % 29.927 in Hg 0 in
09/01/2026 05:45 AM 68 °F 66 °F 68 °F 68 °F 70.8 °F 0 watt/m2 1 mph E 91 % 29.922 in Hg 0 in
09/01/2026 05:30 AM 68 °F 66 °F 68 °F 68 °F 70.8 °F 0 watt/m2 2 mph ESE 91 % 29.918 in Hg 0 in
09/01/2026 05:15 AM 69 °F 66 °F 68 °F 68 °F 71 °F 0 watt/m2 4 mph SE 90 % 29.919 in Hg 0 in
09/01/2026 05:00 AM 69 °F 66 °F 68 °F 68 °F 71 °F 0 watt/m2 2 mph ESE 90 % 29.917 in Hg 0 in
09/01/2026 04:45 AM 69 °F 66 °F 68 °F 68 °F 71.1 °F 0 watt/m2 1 mph ESE 89 % 29.913 in Hg 0 in
09/01/2026 04:30 AM 69 °F 66 °F 68 °F 68 °F 71.3 °F 0 watt/m2 1 mph ESE 89 % 29.912 in Hg 0 in
09/01/2026 04:15 AM 69 °F 66 °F 69 °F 68 °F 71.6 °F 0 watt/m2 1 mph ESE 88 % 29.911 in Hg 0 in
09/01/2026 04:00 AM 69 °F 49 °F 69 °F 69 °F 71.9 °F 0 watt/m2 1 mph ESE 88 % 29.908 in Hg 0 in
09/01/2026 03:45 AM 69 °F 45 °F 69 °F 69 °F 72.3 °F 0 watt/m2 1 mph ESE 87 % 29.907 in Hg 0 in
09/01/2026 03:30 AM 70 °F 68 °F 69 °F 69 °F 72.8 °F 0 watt/m2 1 mph E 87 % 29.907 in Hg 0 in
09/01/2026 03:15 AM 70 °F 68 °F 70 °F 70 °F 73.4 °F 0 watt/m2 1 mph E 86 % 29.904 in Hg 0 in
09/01/2026 03:00 AM 70 °F 48 °F 70 °F 70 °F 73.9 °F 0 watt/m2 1 mph SSE 85 % 29.903 in Hg 0 in
09/01/2026 02:45 AM 71 °F 31 °F 70 °F 70 °F 74.4 °F 0 watt/m2 1 mph SSE 84 % 29.904 in Hg 0 in
09/01/2026 02:30 AM 71 °F 33 °F 71 °F 71 °F 75 °F 0 watt/m2 1 mph SSE 83 % 29.903 in Hg 0 in
09/01/2026 02:15 AM 71 °F 36 °F 71 °F 71 °F 75.5 °F 0 watt/m2 1 mph SSE 83 % 29.905 in Hg 0 in
09/01/2026 02:00 AM 72 °F 52 °F 71 °F 71 °F 76 °F 0 watt/m2 1 mph WSW 82 % 29.91 in Hg 0 in
09/01/2026 01:45 AM 72 °F 64 °F 72 °F 72 °F 76.4 °F 0 watt/m2 4 mph SE 82 % 29.912 in Hg 0 in

Alarms Station information Line AM Subdivision NILES